Simultaneous Nadir Overpasses (SNOs) Predictions

Prediction of SNOs between GOES-15 and TERRA Satellite Orbit:

Table of predicted SNOs for the next 14.0 days since TLE Epoch: 12/21/2024
Index Date Time (GOES-15) GOES-15 Lat,Lon TERRA Lat,Lon Distance(km) Time Diff (sec)
1 12/21/2024 17:11:00 0.09, 61.43 0.92, 65.54 465.78 80
2 12/22/2024 05:30:39 -0.08, 61.37 0.07, 60.75 70.35 80
3 12/24/2024 05:14:55 -0.08, 61.36 -0.89, 65.18 434.60 80
4 12/24/2024 17:34:43 0.07, 61.42 -0.15, 60.37 118.58 80
5 12/26/2024 17:13:38 0.08, 61.42 0.78, 64.81 385.10 80
6 12/27/2024 05:33:16 -0.07, 61.38 0.24, 60.04 152.66 80
7 12/29/2024 05:17:31 -0.07, 61.39 -0.74, 64.47 351.21 80
8 12/29/2024 17:37:19 0.06, 61.43 -0.30, 59.66 200.90 80
9 12/31/2024 17:16:12 0.06, 61.45 0.59, 64.11 301.67 80
10 01/01/2025 05:35:50 -0.05, 61.42 0.41, 59.34 237.85 80
11 01/03/2025 05:20:03 -0.05, 61.45 -0.52, 63.78 265.37 80
12 01/03/2025 17:39:50 0.04, 61.48 -0.49, 58.97 285.31 80
